Location: Izdebno
(52.6670°N, 16.2170°E)
Time: 22:26:03
(UTC+02:00)

Vanguard 2 Rocket - Pass Details

Date: 02 March 2024
Orbit: 555 x 3307 km, 32.9° (Epoch: 21 April)

Event Time Altitude Azimuth Distance (km) Brightness Sun altitude
Rises 15:06:24 0° 242° (WSW) 4,139 11.7 19.4°
Reaches altitude 10° 15:09:22 10° 229° (SW) 3,514 12.4 19.1°
Maximum altitude 15:16:44 26° 177° (S) 3,219 10.4 18.2°
Drops below altitude 10° 15:27:36 10° 130° (SE) 5,329 10.7 16.9°
Sets 15:33:32 0° 120° (ESE) 6,754 11.1 16.2°
